Location: *
(44.1392°N, 4.8079°E)
Time: 15:08:04
(UTC+00:00)

Lacrosse 5 rocket - Pass Details

Date: 19 October 2021
Orbit: 459 x 633 km, 57.0° (Epoch: 04 December)

Event Time Altitude Azimuth Distance (km) Brightness Sun altitude
Exits shadow 03:45:25 71° 84° (E) 607 1.5 -24.9°
Drops below altitude 10° 03:49:27 10° 50° (NE) 1,930 4.9 -24.2°
Sets 03:51:48 0° 49° (NE) 2,862 5.9 -23.8°
